TimeEDT,TemperatureF,Dew PointF,Humidity,Sea Level PressureIn,VisibilityMPH,Wind Direction,Wind SpeedMPH,Gust SpeedMPH,PrecipitationIn,Events,Conditions,WindDirDegrees,DateUTC
12:15 AM,73.4,73.4,100,30.18,7.0,Calm,Calm,-,N/A,,Clear,0,2013-08-21 04:15:00
12:35 AM,73.4,73.4,100,30.19,7.0,Calm,Calm,-,N/A,,Clear,0,2013-08-21 04:35:00
12:55 AM,-9999,-9999,N/A,30.18,10.0,Calm,Calm,-,N/A,,Clear,0,2013-08-21 04:55:00
1:15 AM,-9999,-9999,N/A,30.18,10.0,Calm,Calm,-,N/A,,Clear,0,2013-08-21 05:15:00
1:35 AM,-9999,-9999,N/A,30.18,3.0,Calm,Calm,-,N/A,,Clear,0,2013-08-21 05:35:00
1:55 AM,-9999,-9999,N/A,30.17,7.0,Calm,Calm,-,N/A,,Clear,0,2013-08-21 05:55:00
2:15 AM,-9999,-9999,N/A,30.16,7.0,Calm,Calm,-,N/A,,Clear,0,2013-08-21 06:15:00
2:35 AM,-9999,-9999,N/A,30.16,10.0,Calm,Calm,-,N/A,,Clear,0,2013-08-21 06:35:00
2:55 AM,-9999,-9999,N/A,30.17,7.0,Calm,Calm,-,N/A,,Clear,0,2013-08-21 06:55:00
3:15 AM,-9999,-9999,N/A,30.17,0.5,Calm,Calm,-,N/A,Fog,Fog,0,2013-08-21 07:15:00
3:35 AM,-9999,-9999,N/A,30.16,0.2,Calm,Calm,-,N/A,Fog,Fog,0,2013-08-21 07:35:00
3:55 AM,-9999,-9999,N/A,30.16,0.5,Calm,Calm,-,N/A,Fog,Fog,0,2013-08-21 07:55:00
4:15 AM,-9999,-9999,N/A,30.16,0.8,NNE,3.5,-,N/A,,Mist,20,2013-08-21 08:15:00
4:35 AM,-9999,-9999,N/A,30.16,0.2,Calm,Calm,-,N/A,Fog,Fog,0,2013-08-21 08:35:00
4:55 AM,-9999,-9999,N/A,30.16,0.5,Calm,Calm,-,N/A,Fog,Fog,0,2013-08-21 08:55:00
5:15 AM,-9999,-9999,N/A,30.16,0.2,Calm,Calm,-,N/A,Fog,Fog,0,2013-08-21 09:15:00
5:35 AM,-9999,-9999,N/A,30.16,10.0,Calm,Calm,-,N/A,,Clear,0,2013-08-21 09:35:00
5:55 AM,-9999,-9999,N/A,30.17,10.0,Calm,Calm,-,N/A,,Clear,0,2013-08-21 09:55:00
6:15 AM,-9999,-9999,N/A,30.17,10.0,Calm,Calm,-,N/A,,Clear,0,2013-08-21 10:15:00
6:35 AM,-9999,-9999,N/A,30.18,10.0,Calm,Calm,-,N/A,,Clear,0,2013-08-21 10:35:00
6:55 AM,-9999,-9999,N/A,30.19,10.0,Calm,Calm,-,N/A,,Scattered Clouds,0,2013-08-21 10:55:00
7:15 AM,-9999,-9999,N/A,30.20,10.0,Calm,Calm,-,N/A,,Clear,0,2013-08-21 11:15:00
7:35 AM,-9999,-9999,N/A,30.20,7.0,Calm,Calm,-,N/A,,Scattered Clouds,0,2013-08-21 11:35:00
7:55 AM,-9999,-9999,N/A,30.20,7.0,Calm,Calm,-,N/A,,Scattered Clouds,0,2013-08-21 11:55:00
8:15 AM,-9999,-9999,N/A,30.20,10.0,Calm,Calm,-,N/A,,Mostly Cloudy,0,2013-08-21 12:15:00
8:35 AM,-9999,-9999,N/A,30.21,10.0,Calm,Calm,-,N/A,,Clear,0,2013-08-21 12:35:00
8:55 AM,-9999,-9999,N/A,30.21,10.0,East,3.5,-,N/A,,Scattered Clouds,100,2013-08-21 12:55:00
9:15 AM,80.6,80.6,100,30.21,10.0,Calm,Calm,-,N/A,,Scattered Clouds,0,2013-08-21 13:15:00
9:35 AM,80.6,80.6,100,30.21,10.0,East,3.5,-,N/A,,Scattered Clouds,90,2013-08-21 13:35:00
9:55 AM,84.2,80.6,89,30.22,10.0,East,3.5,-,N/A,,Overcast,100,2013-08-21 13:55:00
10:15 AM,84.2,78.8,84,30.22,10.0,SE,5.8,-,N/A,,Mostly Cloudy,130,2013-08-21 14:15:00
10:35 AM,86.0,77.0,74,30.23,10.0,SE,4.6,-,N/A,,Mostly Cloudy,140,2013-08-21 14:35:00
10:55 AM,84.2,77.0,79,30.23,10.0,SE,3.5,-,N/A,,Overcast,130,2013-08-21 14:55:00
11:15 AM,84.2,77.0,79,30.23,10.0,Calm,Calm,-,N/A,,Mostly Cloudy,0,2013-08-21 15:15:00
11:35 AM,87.8,77.0,70,30.23,10.0,East,6.9,-,N/A,,Scattered Clouds,90,2013-08-21 15:35:00
11:55 AM,86.0,77.0,74,30.23,10.0,ESE,3.5,-,N/A,Rain,Light Rain,120,2013-08-21 15:55:00
12:15 PM,84.2,75.2,74,30.22,10.0,East,6.9,-,N/A,,Overcast,100,2013-08-21 16:15:00
12:35 PM,86.0,75.2,70,30.22,10.0,ESE,5.8,-,N/A,Rain,Light Rain,110,2013-08-21 16:35:00
12:55 PM,78.8,75.2,89,30.21,3.0,Calm,Calm,-,0.05,Rain,Heavy Rain,0,2013-08-21 16:55:00
1:15 PM,82.4,75.2,79,30.21,10.0,Calm,Calm,-,N/A,Rain,Light Rain,0,2013-08-21 17:15:00
1:35 PM,86.0,75.2,70,30.21,10.0,ESE,9.2,-,N/A,,Scattered Clouds,110,2013-08-21 17:35:00
1:55 PM,87.8,75.2,66,30.20,10.0,ESE,9.2,-,N/A,,Clear,110,2013-08-21 17:55:00
2:15 PM,87.8,73.4,62,30.19,10.0,ESE,11.5,-,N/A,,Clear,120,2013-08-21 18:15:00
2:35 PM,87.8,75.2,66,30.18,10.0,East,11.5,-,N/A,,Clear,100,2013-08-21 18:35:00
2:55 PM,87.8,75.2,66,30.18,10.0,ESE,11.5,-,N/A,,Clear,120,2013-08-21 18:55:00
3:15 PM,87.8,73.4,62,30.17,10.0,SSE,9.2,-,N/A,,Clear,160,2013-08-21 19:15:00
3:35 PM,87.8,71.6,58,30.16,10.0,SSE,10.4,-,N/A,,Clear,150,2013-08-21 19:35:00
3:55 PM,87.8,71.6,58,30.16,10.0,South,6.9,-,N/A,,Clear,170,2013-08-21 19:55:00
4:15 PM,87.8,71.6,58,30.16,10.0,South,10.4,-,N/A,,Clear,180,2013-08-21 20:15:00
4:35 PM,87.8,71.6,58,30.16,10.0,SSE,11.5,-,N/A,Thunderstorm,Clear,150,2013-08-21 20:35:00
4:55 PM,87.8,73.4,62,30.16,10.0,SSW,9.2,-,N/A,,Clear,200,2013-08-21 20:55:00
5:15 PM,86.0,73.4,66,30.16,10.0,SSW,6.9,-,N/A,,Clear,200,2013-08-21 21:15:00
5:35 PM,82.4,73.4,74,30.15,10.0,South,5.8,-,N/A,,Clear,190,2013-08-21 21:35:00
5:55 PM,82.4,73.4,74,30.15,10.0,South,3.5,-,N/A,,Clear,180,2013-08-21 21:55:00
6:15 PM,82.4,75.2,79,30.15,10.0,South,4.6,-,N/A,,Clear,180,2013-08-21 22:15:00
6:35 PM,84.2,75.2,74,30.13,10.0,SSE,6.9,-,N/A,,Clear,160,2013-08-21 22:35:00
6:55 PM,82.4,75.2,79,30.13,10.0,SSE,4.6,-,N/A,,Clear,160,2013-08-21 22:55:00
7:15 PM,82.4,75.2,79,30.13,10.0,South,4.6,-,N/A,,Clear,170,2013-08-21 23:15:00
7:35 PM,80.6,75.2,84,30.14,10.0,Calm,Calm,-,N/A,,Clear,0,2013-08-21 23:35:00
7:55 PM,80.6,77.0,89,30.14,10.0,South,3.5,-,N/A,,Clear,180,2013-08-21 23:55:00
8:15 PM,78.8,77.0,94,30.14,10.0,Calm,Calm,-,N/A,,Clear,0,2013-08-22 00:15:00
8:35 PM,77.0,77.0,100,30.14,10.0,Calm,Calm,-,N/A,,Clear,0,2013-08-22 00:35:00
8:55 PM,77.0,77.0,100,30.15,10.0,Calm,Calm,-,N/A,,Clear,0,2013-08-22 00:55:00
9:15 PM,77.0,77.0,100,30.16,10.0,Calm,Calm,-,N/A,,Clear,0,2013-08-22 01:15:00
9:35 PM,77.0,77.0,100,30.17,10.0,Calm,Calm,-,N/A,,Clear,0,2013-08-22 01:35:00
9:55 PM,75.2,75.2,100,30.18,10.0,Calm,Calm,-,N/A,,Clear,0,2013-08-22 01:55:00
10:15 PM,75.2,75.2,100,30.18,10.0,Calm,Calm,-,N/A,,Clear,0,2013-08-22 02:15:00
10:35 PM,73.4,73.4,100,30.19,10.0,Calm,Calm,-,N/A,,Clear,0,2013-08-22 02:35:00
10:55 PM,73.4,73.4,100,30.18,10.0,Calm,Calm,-,N/A,,Clear,0,2013-08-22 02:55:00
11:15 PM,73.4,73.4,100,30.18,10.0,Calm,Calm,-,N/A,,Clear,0,2013-08-22 03:15:00
11:35 PM,73.4,73.4,100,30.18,10.0,Calm,Calm,-,N/A,,Clear,0,2013-08-22 03:35:00
11:55 PM,73.4,73.4,100,30.17,10.0,Calm,Calm,-,N/A,,Clear,0,2013-08-22 03:55:00